Weather History for Fort Payne, AL

Change the Weather History Date:

Saturday, January 19, 2013

  Actual Average (KRMG) Record (KRMG)
Temperature  
Mean Temperature 40 °F 41 °F  
Max Temperature 53 °F 52 °F 66 °F (2006)
Min Temperature 26 °F 30 °F 19 °F (2003)
Degree Days  
Heating Degree Days 26 24  
Month to date heating degree days 456  
Since 1 July heating degree days 1756  
Moisture  
Dew Point 27 °F    
Average Humidity 69    
Maximum Humidity 93    
Minimum Humidity 28    
Precipitation  
Precipitation 0.00 in 0.18 in 2.01 in (2002)
Month to date precipitation 2.60  
Year to date precipitation 2.60  
Snow  
Snow 0.00 in - - ()
Month to date snowfall  
Since 1 July snowfall  
Snow Depth -    
Sea Level Pressure  
Sea Level Pressure 30.32 in    
Wind  
Wind Speed 2 mph (SW)    
Max Wind Speed 10 mph    
Max Gust Speed 16 mph    
Visibility 10 miles    
Events      
T = Trace of Precipitation, MM = Missing Value Source: NWS Daily Summary

Daily Weather History Graph

Daily Weather History Graph

Search for Another Location

Airport:

Trip Planner

Search our weather history database for the weather conditions in past years. The results will help you decide how hot, cold, wet, or windy it might be!

Date:

Astronomy

Jan. 19, 2013 Rise Set
Actual Time 6:47 AM CST 4:59 PM CST
Civil Twilight 6:20 AM CST 5:27 PM CST
Nautical Twilight 5:50 AM CST 5:57 PM CST
Astronomical Twilight 5:20 AM CST 6:27 PM CST
Moon 11:22 AM CST (1/19) 12:25 AM CST (1/19)
Length of Visible Light 11h 06m
Length of Day
10h 12m
First Quarter, 57% of the Moon is Illuminated
Jan 19
First Quarter
Jan 26
Full
Feb 3
Last Quarter
Feb 10
New
Feb 17
First Quarter

Hourly Weather History & Observations

Time (CST) Temp. Windchill Dew Point Humidity Pressure Visibility Wind Dir Wind Speed Gust Speed Precip Events Conditions
12:15 AM 30.2 °F - 28.4 °F 93% 30.41 in 10.0 mi Calm Calm - N/A   Clear
12:35 AM 30.2 °F - 28.4 °F 93% 30.40 in 10.0 mi Calm Calm - N/A   Clear
12:55 AM 30.2 °F - 26.6 °F 86% 30.40 in 10.0 mi Calm Calm - N/A   Clear
1:15 AM 30.2 °F - 28.4 °F 93% 30.40 in 10.0 mi Calm Calm - N/A   Clear
1:35 AM 32.0 °F - 28.4 °F 87% 30.40 in 10.0 mi Calm Calm - N/A   Clear
1:55 AM 32.0 °F - 28.4 °F 87% 30.40 in 10.0 mi Calm Calm - N/A   Clear
2:15 AM 30.2 °F - 28.4 °F 93% 30.40 in 10.0 mi Calm Calm - N/A   Clear
2:35 AM 30.2 °F - 26.6 °F 86% 30.40 in 10.0 mi Calm Calm - N/A   Clear
2:55 AM 30.2 °F - 26.6 °F 86% 30.40 in 10.0 mi Calm Calm - N/A   Clear
3:15 AM 30.2 °F - 26.6 °F 86% 30.41 in 10.0 mi Calm Calm - N/A   Clear
3:35 AM 30.2 °F - 26.6 °F 86% 30.41 in 10.0 mi Calm Calm - N/A   Clear
3:55 AM 30.2 °F - 26.6 °F 86% 30.41 in 10.0 mi Calm Calm - N/A   Clear
4:15 AM 28.4 °F - 26.6 °F 93% 30.41 in 10.0 mi Calm Calm - N/A   Clear
4:35 AM 28.4 °F - 26.6 °F 93% 30.40 in 10.0 mi Calm Calm - N/A   Clear
4:55 AM 28.4 °F - 26.6 °F 93% 30.40 in 7.0 mi Calm Calm - N/A   Clear
5:15 AM 28.4 °F - 26.6 °F 93% 30.40 in 7.0 mi Calm Calm - N/A   Clear
5:35 AM 26.6 °F - 24.8 °F 93% 30.41 in 10.0 mi Calm Calm - N/A   Clear
5:55 AM 28.4 °F - 26.6 °F 93% 30.41 in 10.0 mi Calm Calm - N/A   Clear
7:15 AM 28.4 °F - 24.8 °F 86% 30.41 in 10.0 mi Calm Calm - N/A   Clear
7:55 AM 30.2 °F - 28.4 °F 93% 30.40 in 10.0 mi Calm Calm - N/A   Clear
8:35 AM 33.8 °F - 32.0 °F 93% 30.42 in 10.0 mi Calm Calm - N/A   Clear
9:35 AM 44.6 °F 43.1 °F 24.8 °F 46% 30.42 in 10.0 mi South 3.5 mph - N/A   Clear
9:55 AM 46.4 °F 43.5 °F 23.0 °F 40% 30.42 in 10.0 mi SSW 5.8 mph - N/A   Clear
10:15 AM 46.4 °F - 21.2 °F 37% 30.41 in 10.0 mi Calm Calm - N/A   Clear
10:35 AM 48.2 °F - 21.2 °F 34% 30.40 in 10.0 mi Calm Calm - N/A   Clear
10:55 AM 48.2 °F - 21.2 °F 34% 30.38 in 10.0 mi SSW 4.6 mph - N/A   Clear
11:15 AM 50.0 °F - 23.0 °F 35% 30.37 in 10.0 mi South 5.8 mph - N/A   Clear
11:35 AM 50.0 °F - 21.2 °F 32% 30.35 in 10.0 mi SSW 6.9 mph - N/A   Clear
11:55 AM 50.0 °F - 23.0 °F 35% 30.33 in 10.0 mi WSW 6.9 mph - N/A   Clear
12:15 PM 51.8 °F - 23.0 °F 33% 30.32 in 10.0 mi SW 8.1 mph - N/A   Clear
12:35 PM 51.8 °F - 23.0 °F 33% 30.30 in 10.0 mi SW 10.4 mph 16.1 mph N/A   Clear
12:55 PM 51.8 °F - 23.0 °F 33% 30.29 in 10.0 mi SW 9.2 mph - N/A   Clear
1:35 PM 51.8 °F - 23.0 °F 33% 30.27 in 10.0 mi SW 4.6 mph - N/A   Clear
1:55 PM 53.6 °F - 21.2 °F 28% 30.27 in 10.0 mi SW 10.4 mph - N/A   Clear
2:15 PM 53.6 °F - 23.0 °F 30% 30.26 in 10.0 mi SW 6.9 mph - N/A   Clear
2:35 PM 53.6 °F - 23.0 °F 30% 30.25 in 10.0 mi SW 10.4 mph - N/A   Clear
2:55 PM 53.6 °F - 23.0 °F 30% 30.25 in 10.0 mi SW 10.4 mph - N/A   Clear
3:15 PM 53.6 °F - 21.2 °F 28% 30.25 in 10.0 mi WSW 9.2 mph - N/A   Clear
3:35 PM 53.6 °F - 23.0 °F 30% 30.24 in 10.0 mi SW 9.2 mph - N/A   Clear
3:55 PM 53.6 °F - 23.0 °F 30% 30.24 in 10.0 mi SW 8.1 mph - N/A   Clear
4:15 PM 51.8 °F - 24.8 °F 35% 30.24 in 10.0 mi WSW 8.1 mph - N/A   Clear
4:35 PM 51.8 °F - 26.6 °F 38% 30.24 in 10.0 mi SSW 4.6 mph - N/A   Clear
4:55 PM 50.0 °F - 28.4 °F 43% 30.24 in 10.0 mi Calm Calm - N/A   Clear
5:15 PM 44.6 °F - 30.2 °F 57% 30.24 in 10.0 mi Calm Calm - N/A   Clear
5:35 PM 42.8 °F - 30.2 °F 61% 30.24 in 10.0 mi Calm Calm - N/A   Clear
5:55 PM 41.0 °F - 32.0 °F 70% 30.25 in 10.0 mi Calm Calm - N/A   Clear
6:15 PM 39.2 °F - 32.0 °F 75% 30.25 in 10.0 mi Calm Calm - N/A   Clear
6:35 PM 35.6 °F - 32.0 °F 87% 30.25 in 10.0 mi Calm Calm - N/A   Clear
6:55 PM 37.4 °F - 32.0 °F 81% 30.25 in 10.0 mi Calm Calm - N/A   Clear
7:15 PM 35.6 °F - 32.0 °F 87% 30.25 in 10.0 mi Calm Calm - N/A   Clear
7:35 PM 35.6 °F - 32.0 °F 87% 30.24 in 10.0 mi Calm Calm - N/A   Clear
7:55 PM 33.8 °F - 32.0 °F 93% 30.25 in 10.0 mi Calm Calm - N/A   Clear
8:15 PM 33.8 °F - 30.2 °F 87% 30.24 in 10.0 mi Calm Calm - N/A   Clear
8:35 PM 32.0 °F - 30.2 °F 93% 30.23 in 10.0 mi Calm Calm - N/A   Clear
8:55 PM 32.0 °F - 30.2 °F 93% 30.24 in 10.0 mi Calm Calm - N/A   Clear
9:15 PM 32.0 °F - 30.2 °F 93% 30.24 in 10.0 mi Calm Calm - N/A   Clear
9:35 PM 32.0 °F - 30.2 °F 93% 30.23 in 10.0 mi Calm Calm - N/A   Clear
9:55 PM 32.0 °F - 30.2 °F 93% 30.23 in 10.0 mi Calm Calm - N/A   Clear
10:15 PM 32.0 °F - 28.4 °F 87% 30.23 in 10.0 mi Calm Calm - N/A   Clear
10:35 PM 32.0 °F - 28.4 °F 87% 30.23 in 10.0 mi Calm Calm - N/A   Clear
10:55 PM 32.0 °F - 28.4 °F 87% 30.23 in 10.0 mi Calm Calm - N/A   Clear
11:15 PM 30.2 °F - 28.4 °F 93% 30.23 in 10.0 mi Calm Calm - N/A   Clear
11:35 PM 30.2 °F - 28.4 °F 93% 30.23 in 10.0 mi Calm Calm - N/A   Clear
11:55 PM 30.2 °F - 28.4 °F 93% 30.22 in 10.0 mi Calm Calm - N/A   Clear